Preview of NWS' New Version of Forecast
This preview is not operational and should not be used for support decisions.
Latest weather observations around

AD6NH Orange (AP541)

Using English Units (Switch to International System of Units)
Date/ Time (PDT) Wind (mph) Vis. (mi) Weather Sky Cond. Temp (°F) Rel. Humidity Wind Chill (°F) Heat Index (°F) Pressure Precip. (in)
Air Dwpt 6 hour Altimeter (inHg) Sea level (inHg) 1 hr 3 hr 6 hr
Max Min
Jun 12 04:08 Calm   Clear   57 52     82%              
Jun 11 21:52 SSW 2   Clear   63 55     74%     29.99        
Jun 11 21:22 SW 2   Clear   63 55     74%     29.98        
Jun 11 21:07 WSW 1   Clear   63 55     74%     29.98        
Jun 11 20:07 SSW 3   Clear   63 54     72%     29.96        
Jun 11 19:22 SW 4   Clear   64 55     72%     29.96        
Jun 11 19:07 WSW 3   Clear   64 54     71%     29.96        
Jun 11 15:07 SSW 6   Clear   71 56     59%   71 29.93        
Jun 11 14:53 SE 6   Clear   70 56     61%     29.93        
Jun 11 12:07 SE 5   Clear   69 58     67%     29.96        
Jun 11 11:06 SSE 4   Clear   65 59     81%              
Jun 11 10:51 SSW 4   Clear   63 57     82%     29.95        
Jun 11 10:36 SSW 2   Clear   65 58     79%     29.95        
Jun 11 09:06 SSW 1   Clear   61 56     85%     29.94        
Jun 11 08:51 Calm   Clear   61 56     85%     29.93        
Jun 11 08:36 Calm   Clear   61 57     86%     29.93        
Jun 11 06:36 Calm   Clear   59 55     88%     29.91        
Jun 11 01:35 ESE 1   Clear   61 53     76%     29.9        
Jun 11 01:20 SW 1   Clear   61 54     77%     29.9        
Jun 10 22:20 S 2   Clear   62 56     80%     29.91        
Jun 10 20:50 SW 1   Clear   62 56     80%     29.89        
Jun 10 20:05 SSW 3   Clear   63 56     78%     29.88        
Jun 10 18:20 SW 1   Clear   66 56     69%     29.88        
Jun 10 16:20 SSW 5   Clear   69 57     65%     29.9        
Jun 10 13:20 SW 7   Clear   72 60     65%   72 29.91        
Jun 10 08:34 SW 1   Clear   64 59     84%     29.92        
Jun 10 04:33 S 1   Clear   61 58     91%     29.9        
Jun 09 18:33 SSW 3   Clear   70 61     74%     29.91        
Jun 09 14:03 NW 3   Clear   75 58     56%   75 29.95        
Jun 09 11:47 WSW 4   Clear   71 58     64%   71 29.98        
Jun 09 10:32 SW 1   Clear   69 59     70%     29.98        
Jun 09 08:32 Calm   Clear   63 57     82%     29.98        
Jun 09 01:01 Calm   Clear   60 55     83%     29.97        
Jun 08 22:46 Calm   Clear   62 53     72%     29.98        
Jun 08 21:16 Calm   Clear   63 57     82%     29.98        
Jun 08 20:01 Calm   Clear   65 58     77%     29.97        
Jun 08 18:01 WSW 5   Clear   68 58     71%     29.96        
Jun 08 17:45 WSW 3   Clear   70 59     67%     29.96        
Jun 08 17:31 WNW 2   Clear   72 60     65%   72 29.96        
Jun 08 16:45 WNW 3   Clear   75 60     60%   75 29.97        
Jun 08 15:45 W 3   Clear   75 60     59%   75 29.99        
Jun 08 14:15 WSW 3   Clear   74 60     61%   74 30.02        
Jun 08 14:00 N 1   Clear   75 60     59%   75 30.02        
Jun 08 12:00 WSW 1   Clear   67 59     75%     30.06        
Jun 08 09:13 WSW 1   Clear   64 59     83%              
Jun 08 05:29 Calm   Clear   61 57     87%     30.01        
Jun 08 01:44 SSW 1   Clear   61 57     87%     30.01        
Jun 08 00:43 SSW 2   Clear   61 57     88%              
Jun 07 19:28 W 1   Clear   64 59     83%     29.98        
Jun 07 17:13 SSW 3   Clear   67 60     77%              
Jun 07 15:28 W 1   Clear   69 61     75%     29.97        
Jun 07 14:58 S 4   Clear   68 61     77%     29.98        
Jun 07 14:28 SSW 2   Clear   67 60     79%     29.99        
Jun 07 13:58 WSW 3   Clear   67 61     81%     29.99        
Jun 07 09:12 WSW 1   Clear   61 60     95%     29.98        
Jun 07 06:57 WSW 1   Clear   60 58     94%     29.96        
Jun 07 06:12 Calm   Clear   60 58     94%     29.95        
Jun 07 05:27 Calm   Clear   60 58     93%              
Jun 06 13:11 W 1   Clear   68 61     78%     29.98        
Jun 06 12:56 N 1   Clear   67 61     80%     29.98        
Jun 06 11:11 WSW 2   Clear   64 59     85%     29.98        
Jun 06 05:10 Calm   Clear   62 58     87%              
Jun 06 02:54 Calm   Clear   63 59     86%     29.92        
Jun 06 01:24 Calm   Clear   63 59     86%     29.92        
Jun 06 01:09 SSW 1   Clear   63 59     86%     29.92        
Jun 06 00:24 W 1   Clear   63 59     86%     29.93        
Jun 05 23:24 Calm   Clear   63 59     86%     29.93        
Jun 05 23:09 SW 1   Clear   63 58     85%     29.94        
Jun 05 19:54 WSW 2   Clear   64 58     82%     29.91        
Jun 05 16:39 SSW 3   Clear   71 61     70%   71 29.88